Time,TemperatureF,DewpointF,PressureIn,WindDirection,WindDirectionDegrees,WindSpeedMPH,WindSpeedGustMPH,Humidity,HourlyPrecipIn,Conditions,Clouds,dailyrainin,SoftwareType,DateUTC
2013-04-30 00:02:00,49.0,48.0,30.14,ESE,115,0.0,2.0,95,0.00,,,0.13,,2013-04-30 04:02:00,
2013-04-30 00:12:00,49.0,48.0,30.14,ESE,115,0.0,2.0,95,0.00,,,0.13,,2013-04-30 04:12:00,
2013-04-30 00:22:00,49.0,48.0,30.14,ESE,123,0.0,4.0,95,0.00,,,0.13,,2013-04-30 04:22:00,
2013-04-30 00:32:00,49.0,48.0,30.14,East,96,0.0,7.0,95,0.00,,,0.13,,2013-04-30 04:32:00,
2013-04-30 00:42:00,49.0,48.0,30.14,East,96,0.0,7.0,95,0.00,,,0.13,,2013-04-30 04:42:00,
2013-04-30 00:52:00,49.0,48.0,30.14,East,98,0.0,2.0,95,0.00,,,0.13,,2013-04-30 04:52:00,
2013-04-30 01:02:00,49.0,48.0,30.14,ESE,105,0.0,1.0,95,0.00,,,0.13,,2013-04-30 05:02:00,
2013-04-30 01:12:00,49.0,48.0,30.14,ESE,105,0.0,1.0,95,0.00,,,0.13,,2013-04-30 05:12:00,
2013-04-30 01:22:00,49.0,48.0,30.13,ESE,105,0.0,3.0,95,0.00,,,0.13,,2013-04-30 05:22:00,
2013-04-30 01:31:00,49.0,48.0,30.13,SSE,165,0.0,3.0,95,0.00,,,0.13,,2013-04-30 05:31:00,
2013-04-30 01:42:00,49.0,48.0,30.13,SSE,165,0.0,3.0,95,0.00,,,0.13,,2013-04-30 05:42:00,
2013-04-30 01:51:00,49.0,48.0,30.13,SE,134,0.0,2.0,95,0.00,,,0.13,,2013-04-30 05:51:00,
2013-04-30 02:02:00,49.0,48.0,30.13,ESE,120,0.0,7.0,95,0.00,,,0.13,,2013-04-30 06:02:00,
2013-04-30 02:12:00,49.0,48.0,30.13,ESE,115,0.0,8.0,95,0.01,,,0.14,,2013-04-30 06:12:00,
2013-04-30 02:21:00,49.0,48.0,30.13,ESE,115,0.0,8.0,95,0.01,,,0.14,,2013-04-30 06:21:00,
2013-04-30 02:32:00,48.0,47.0,30.13,ESE,123,0.0,5.0,95,0.01,,,0.14,,2013-04-30 06:32:00,
2013-04-30 02:41:00,48.0,47.0,30.13,ESE,123,0.0,5.0,95,0.01,,,0.14,,2013-04-30 06:41:00,
2013-04-30 02:52:00,48.0,47.0,30.12,ESE,115,0.0,7.0,95,0.01,,,0.14,,2013-04-30 06:52:00,
2013-04-30 03:01:00,48.0,47.0,30.12,ESE,103,0.0,3.0,95,0.01,,,0.14,,2013-04-30 07:01:00,
2013-04-30 03:11:00,48.0,47.0,30.12,ESE,103,0.0,3.0,95,0.01,,,0.14,,2013-04-30 07:11:00,
2013-04-30 03:21:00,48.0,47.0,30.12,SE,126,0.0,6.0,95,0.00,,,0.14,,2013-04-30 07:21:00,
2013-04-30 03:32:00,48.0,47.0,30.13,ESE,123,0.0,2.0,95,0.00,,,0.14,,2013-04-30 07:32:00,
2013-04-30 03:42:00,48.0,47.0,30.13,ESE,123,0.0,2.0,95,0.00,,,0.14,,2013-04-30 07:42:00,
2013-04-30 03:52:00,48.0,47.0,30.13,ESE,114,0.0,3.0,95,0.00,,,0.14,,2013-04-30 07:52:00,
2013-04-30 04:02:00,48.0,47.0,30.14,SE,132,0.0,3.0,96,0.00,,,0.14,,2013-04-30 08:02:00,
2013-04-30 04:11:00,48.0,47.0,30.14,SE,132,0.0,3.0,96,0.00,,,0.14,,2013-04-30 08:11:00,
2013-04-30 04:22:00,48.0,47.0,30.14,ESE,105,0.0,2.0,96,0.00,,,0.14,,2013-04-30 08:22:00,
2013-04-30 04:32:00,48.0,47.0,30.14,SE,139,0.0,3.0,96,0.00,,,0.13,,2013-04-30 08:32:00,
2013-04-30 04:42:00,48.0,47.0,30.14,SE,139,0.0,3.0,96,0.00,,,0.13,,2013-04-30 08:42:00,
2013-04-30 04:52:00,48.0,47.0,30.14,ESE,110,0.0,2.0,96,0.00,,,0.13,,2013-04-30 08:52:00,
2013-04-30 05:02:00,48.0,47.0,30.14,ESE,110,0.0,4.0,96,0.00,,,0.13,,2013-04-30 09:02:00,
2013-04-30 05:11:00,48.0,47.0,30.14,ESE,110,0.0,4.0,96,0.00,,,0.13,,2013-04-30 09:11:00,
2013-04-30 05:22:00,48.0,47.0,30.14,SSE,149,0.0,4.0,96,0.00,,,0.13,,2013-04-30 09:22:00,
2013-04-30 05:33:00,48.0,47.0,30.14,SE,143,0.0,1.0,96,0.00,,,0.13,,2013-04-30 09:33:00,
2013-04-30 05:43:00,48.0,47.0,30.14,SE,143,0.0,1.0,96,0.00,,,0.13,,2013-04-30 09:43:00,
2013-04-30 05:52:00,48.0,47.0,30.14,SE,142,0.0,2.0,96,0.00,,,0.13,,2013-04-30 09:52:00,
2013-04-30 06:03:00,48.0,47.0,30.15,SE,142,0.0,1.0,96,0.00,,,0.13,,2013-04-30 10:03:00,
2013-04-30 06:12:00,48.0,47.0,30.15,SE,142,0.0,1.0,96,0.00,,,0.13,,2013-04-30 10:12:00,
2013-04-30 06:22:00,48.0,47.0,30.16,SE,140,0.0,3.0,96,0.00,,,0.13,,2013-04-30 10:22:00,
2013-04-30 06:32:00,48.0,47.0,30.16,SE,140,0.0,3.0,96,0.00,,,0.13,,2013-04-30 10:32:00,
2013-04-30 06:41:00,48.0,47.0,30.16,SE,140,0.0,3.0,96,0.00,,,0.13,,2013-04-30 10:41:00,
2013-04-30 06:52:00,48.0,47.0,30.16,SE,140,0.0,2.0,96,0.00,,,0.13,,2013-04-30 10:52:00,
2013-04-30 07:02:00,48.0,47.0,30.16,ESE,110,0.0,2.0,96,0.00,,,0.13,,2013-04-30 11:02:00,
2013-04-30 07:11:00,48.0,47.0,30.16,ESE,110,0.0,2.0,96,0.00,,,0.13,,2013-04-30 11:11:00,
2013-04-30 07:21:00,48.0,47.0,30.17,ESE,110,0.0,2.0,96,0.00,,,0.13,,2013-04-30 11:21:00,
2013-04-30 07:32:00,48.0,47.0,30.18,SE,125,0.0,1.0,96,0.00,,,0.13,,2013-04-30 11:32:00,
2013-04-30 07:42:00,48.0,47.0,30.18,SE,125,0.0,1.0,96,0.00,,,0.13,,2013-04-30 11:42:00,
2013-04-30 07:51:00,48.0,47.0,30.19,ESE,112,0.0,3.0,96,0.00,,,0.13,,2013-04-30 11:51:00,
2013-04-30 08:01:00,49.0,48.0,30.19,East,98,0.0,5.0,96,0.00,,,0.13,,2013-04-30 12:01:00,
2013-04-30 08:11:00,49.0,48.0,30.19,East,98,0.0,5.0,96,0.00,,,0.13,,2013-04-30 12:11:00,
2013-04-30 08:21:00,49.0,48.0,30.19,ESE,103,0.0,4.0,96,0.00,,,0.13,,2013-04-30 12:21:00,
2013-04-30 08:31:00,49.0,48.0,30.20,SE,129,0.0,4.0,96,0.00,,,0.12,,2013-04-30 12:31:00,
2013-04-30 08:41:00,49.0,48.0,30.20,SE,129,0.0,4.0,96,0.00,,,0.12,,2013-04-30 12:41:00,
2013-04-30 08:51:00,49.0,48.0,30.20,ENE,73,0.0,3.0,96,0.00,,,0.12,,2013-04-30 12:51:00,
2013-04-30 09:01:00,50.0,49.0,30.20,NE,44,0.0,3.0,96,0.00,,,0.12,,2013-04-30 13:01:00,
2013-04-30 09:11:00,50.0,49.0,30.20,NE,44,0.0,3.0,96,0.00,,,0.12,,2013-04-30 13:11:00,
2013-04-30 09:21:00,51.0,50.0,30.21,ESE,111,1.0,5.0,95,0.00,,,0.12,,2013-04-30 13:21:00,
2013-04-30 09:31:00,51.0,49.0,30.21,SE,126,1.0,6.0,94,0.00,,,0.12,,2013-04-30 13:31:00,
2013-04-30 09:41:00,51.0,49.0,30.21,SE,126,1.0,6.0,94,0.00,,,0.12,,2013-04-30 13:41:00,
2013-04-30 09:51:00,52.0,50.0,30.21,NE,52,0.0,4.0,92,0.00,,,0.12,,2013-04-30 13:51:00,
2013-04-30 10:02:00,53.0,50.0,30.22,ESE,102,1.0,6.0,88,0.00,,,0.12,,2013-04-30 14:02:00,
2013-04-30 10:11:00,53.0,48.0,30.22,ESE,106,0.0,7.0,84,0.00,,,0.12,,2013-04-30 14:11:00,
2013-04-30 10:21:00,53.0,48.0,30.22,ESE,106,0.0,7.0,84,0.00,,,0.12,,2013-04-30 14:21:00,
2013-04-30 10:31:00,54.0,48.0,30.22,NNE,24,0.0,5.0,81,0.00,,,0.11,,2013-04-30 14:31:00,
2013-04-30 10:41:00,54.0,48.0,30.22,NNE,24,0.0,5.0,81,0.00,,,0.11,,2013-04-30 14:41:00,
2013-04-30 10:52:00,55.0,47.0,30.21,East,88,0.0,4.0,75,0.00,,,0.11,,2013-04-30 14:52:00,
2013-04-30 11:01:00,55.0,45.0,30.22,ESE,108,2.0,7.0,70,0.00,,,0.11,,2013-04-30 15:01:00,
2013-04-30 11:11:00,55.0,45.0,30.22,ESE,108,2.0,7.0,70,0.00,,,0.11,,2013-04-30 15:11:00,
2013-04-30 11:21:00,56.0,45.0,30.22,East,98,1.0,7.0,66,0.00,,,0.11,,2013-04-30 15:21:00,
2013-04-30 11:32:00,57.0,44.0,30.22,SE,139,1.0,11.0,62,0.00,,,0.11,,2013-04-30 15:32:00,
2013-04-30 11:42:00,57.0,44.0,30.22,SE,139,1.0,11.0,62,0.00,,,0.11,,2013-04-30 15:42:00,
2013-04-30 11:52:00,58.0,42.0,30.21,SSE,150,2.0,15.0,56,0.00,,,0.11,,2013-04-30 15:52:00,
2013-04-30 12:02:00,58.0,41.0,30.22,ESE,105,1.0,11.0,53,0.00,,,0.11,,2013-04-30 16:02:00,
2013-04-30 12:12:00,58.0,41.0,30.22,ESE,105,1.0,11.0,53,0.00,,,0.11,,2013-04-30 16:12:00,
2013-04-30 12:23:00,59.0,42.0,30.22,SSE,161,3.0,10.0,54,0.00,,,0.11,,2013-04-30 16:23:00,
2013-04-30 12:33:00,60.0,44.0,30.21,SSE,148,1.0,8.0,55,0.00,,,0.10,,2013-04-30 16:33:00,
2013-04-30 12:42:00,60.0,44.0,30.21,SSE,148,1.0,8.0,55,0.00,,,0.10,,2013-04-30 16:42:00,
2013-04-30 12:52:00,60.0,43.0,30.21,East,89,4.0,11.0,54,0.00,,,0.10,,2013-04-30 16:52:00,
2013-04-30 13:02:00,62.0,45.0,30.20,East,101,2.0,8.0,54,0.00,,,0.10,,2013-04-30 17:02:00,
2013-04-30 13:12:00,62.0,45.0,30.20,East,101,2.0,8.0,54,0.00,,,0.10,,2013-04-30 17:12:00,
2013-04-30 13:22:00,62.0,44.0,30.20,East,90,1.0,7.0,52,0.00,,,0.10,,2013-04-30 17:22:00,
2013-04-30 13:32:00,61.0,43.0,30.20,East,81,3.0,8.0,52,0.00,,,0.09,,2013-04-30 17:32:00,
2013-04-30 13:42:00,61.0,43.0,30.20,East,81,3.0,8.0,52,0.00,,,0.09,,2013-04-30 17:42:00,
2013-04-30 13:52:00,63.0,42.0,30.20,East,99,0.0,9.0,46,0.00,,,0.09,,2013-04-30 17:52:00,
2013-04-30 14:01:00,63.0,40.0,30.21,East,87,1.0,11.0,43,0.00,,,0.09,,2013-04-30 18:01:00,
2013-04-30 14:11:00,64.0,41.0,30.20,SE,140,1.0,9.0,43,0.00,,,0.08,,2013-04-30 18:11:00,
2013-04-30 14:22:00,64.0,41.0,30.20,SE,140,1.0,9.0,43,0.00,,,0.08,,2013-04-30 18:22:00,
2013-04-30 14:32:00,63.0,37.0,30.20,ESE,119,1.0,10.0,38,0.00,,,0.08,,2013-04-30 18:32:00,
2013-04-30 14:42:00,65.0,38.0,30.20,SE,133,3.0,8.0,37,0.00,,,0.08,,2013-04-30 18:42:00,
2013-04-30 14:52:00,65.0,38.0,30.20,SE,133,3.0,8.0,37,0.00,,,0.08,,2013-04-30 18:52:00,
2013-04-30 15:01:00,64.0,38.0,30.20,South,175,2.0,9.0,38,0.00,,,0.08,,2013-04-30 19:01:00,
2013-04-30 15:11:00,63.0,38.0,30.20,ESE,111,1.0,8.0,40,0.00,,,0.07,,2013-04-30 19:11:00,
2013-04-30 15:22:00,63.0,38.0,30.20,ESE,111,1.0,8.0,40,0.00,,,0.07,,2013-04-30 19:22:00,
2013-04-30 15:32:00,64.0,38.0,30.20,ESE,111,2.0,10.0,38,0.00,,,0.07,,2013-04-30 19:32:00,
2013-04-30 15:42:00,64.0,38.0,30.20,ESE,111,2.0,10.0,38,0.00,,,0.07,,2013-04-30 19:42:00,
2013-04-30 15:52:00,65.0,39.0,30.20,ESE,108,0.0,9.0,38,0.00,,,0.07,,2013-04-30 19:52:00,
2013-04-30 16:02:00,64.0,36.0,30.20,East,86,1.0,11.0,35,0.00,,,0.07,,2013-04-30 20:02:00,
2013-04-30 16:11:00,64.0,36.0,30.20,East,86,1.0,11.0,35,0.00,,,0.07,,2013-04-30 20:11:00,
2013-04-30 16:21:00,62.0,33.0,30.21,East,98,0.0,7.0,34,0.00,,,0.06,,2013-04-30 20:21:00,
2013-04-30 16:32:00,61.0,31.0,30.22,SE,139,1.0,9.0,32,0.00,,,0.06,,2013-04-30 20:32:00,
2013-04-30 16:42:00,61.0,31.0,30.22,SE,139,1.0,9.0,32,0.00,,,0.06,,2013-04-30 20:42:00,
2013-04-30 16:52:00,61.0,31.0,30.22,ESE,121,0.0,6.0,32,0.00,,,0.06,,2013-04-30 20:52:00,
2013-04-30 17:02:00,63.0,31.0,30.22,SSE,147,0.0,7.0,30,0.00,,,0.06,,2013-04-30 21:02:00,
2013-04-30 17:11:00,63.0,31.0,30.22,SSE,156,0.0,9.0,30,0.00,,,0.03,,2013-04-30 21:11:00,
2013-04-30 17:22:00,63.0,31.0,30.22,SSE,156,0.0,9.0,30,0.00,,,0.03,,2013-04-30 21:22:00,
2013-04-30 17:32:00,63.0,32.0,30.22,South,186,1.0,8.0,31,0.00,,,0.03,,2013-04-30 21:32:00,
2013-04-30 17:42:00,63.0,32.0,30.22,South,186,1.0,8.0,31,0.00,,,0.03,,2013-04-30 21:42:00,
2013-04-30 17:53:00,63.0,29.0,30.22,East,97,1.0,6.0,28,0.00,,,0.03,,2013-04-30 21:53:00,
2013-04-30 18:02:00,62.0,29.0,30.22,East,98,1.0,7.0,29,0.00,,,0.03,,2013-04-30 22:02:00,
2013-04-30 18:12:00,62.0,29.0,30.22,East,98,1.0,7.0,29,0.00,,,0.03,,2013-04-30 22:12:00,
2013-04-30 18:23:00,62.0,29.0,30.22,SE,128,2.0,9.0,28,0.00,,,0.02,,2013-04-30 22:23:00,
2013-04-30 18:32:00,62.0,29.0,30.22,SE,128,2.0,9.0,28,0.00,,,0.02,,2013-04-30 22:32:00,
2013-04-30 18:42:00,62.0,29.0,30.22,SE,128,2.0,9.0,28,0.00,,,0.02,,2013-04-30 22:42:00,
2013-04-30 18:53:00,60.0,29.0,30.22,SE,139,0.0,5.0,31,0.00,,,0.02,,2013-04-30 22:53:00,
2013-04-30 19:02:00,59.0,28.0,30.22,South,178,2.0,6.0,31,0.00,,,0.02,,2013-04-30 23:02:00,
2013-04-30 19:12:00,59.0,28.0,30.22,South,178,2.0,6.0,31,0.00,,,0.02,,2013-04-30 23:12:00,
2013-04-30 19:22:00,58.0,29.0,30.22,SE,142,0.0,7.0,33,0.00,,,0.01,,2013-04-30 23:22:00,
2013-04-30 19:32:00,56.0,27.0,30.23,SE,143,1.0,7.0,32,0.00,,,0.01,,2013-04-30 23:32:00,
2013-04-30 19:42:00,56.0,27.0,30.23,SE,143,1.0,7.0,32,0.00,,,0.01,,2013-04-30 23:42:00,
2013-04-30 19:52:00,55.0,26.0,30.23,ESE,109,0.0,4.0,33,0.00,,,0.01,,2013-04-30 23:52:00,
2013-04-30 20:02:00,54.0,27.0,30.23,ESE,118,0.0,7.0,35,0.00,,,0.01,,2013-05-01 00:02:00,
2013-04-30 20:11:00,54.0,27.0,30.23,ESE,118,0.0,7.0,35,0.00,,,0.01,,2013-05-01 00:11:00,
2013-04-30 20:22:00,53.0,26.0,30.24,ESE,120,0.0,3.0,35,0.00,,,0.01,,2013-05-01 00:22:00,
2013-04-30 20:32:00,52.0,27.0,30.24,SE,130,0.0,4.0,38,0.00,,,0.01,,2013-05-01 00:32:00,
2013-04-30 20:42:00,52.0,27.0,30.24,SE,130,0.0,4.0,38,0.00,,,0.01,,2013-05-01 00:42:00,
2013-04-30 20:52:00,51.0,26.0,30.24,SE,127,0.0,3.0,38,0.00,,,0.01,,2013-05-01 00:52:00,
2013-04-30 21:01:00,51.0,27.0,30.24,South,172,0.0,4.0,39,0.00,,,0.01,,2013-05-01 01:01:00,
2013-04-30 21:11:00,51.0,27.0,30.24,South,172,0.0,4.0,39,0.00,,,0.01,,2013-05-01 01:11:00,
2013-04-30 21:21:00,50.0,27.0,30.24,South,173,0.0,3.0,40,0.00,,,0.01,,2013-05-01 01:21:00,
2013-04-30 21:32:00,49.0,27.0,30.25,South,173,0.0,0.0,42,0.00,,,0.01,,2013-05-01 01:32:00,
2013-04-30 21:42:00,49.0,27.0,30.25,South,173,0.0,0.0,42,0.00,,,0.01,,2013-05-01 01:42:00,
2013-04-30 21:52:00,49.0,27.0,30.25,South,173,0.0,0.0,43,0.00,,,0.01,,2013-05-01 01:52:00,
2013-04-30 22:02:00,48.0,28.0,30.25,South,173,0.0,0.0,45,0.00,,,0.01,,2013-05-01 02:02:00,
2013-04-30 22:11:00,47.0,28.0,30.25,South,173,0.0,0.0,48,0.00,,,0.01,,2013-05-01 02:11:00,
2013-04-30 22:21:00,47.0,28.0,30.25,South,173,0.0,0.0,48,0.00,,,0.01,,2013-05-01 02:21:00,
2013-04-30 22:32:00,46.0,28.0,30.25,South,173,0.0,0.0,49,0.00,,,0.01,,2013-05-01 02:32:00,
2013-04-30 22:42:00,46.0,28.0,30.25,South,173,0.0,0.0,49,0.00,,,0.01,,2013-05-01 02:42:00,
2013-04-30 22:52:00,46.0,28.0,30.26,South,173,0.0,0.0,50,0.00,,,0.01,,2013-05-01 02:52:00,
2013-04-30 23:02:00,46.0,27.0,30.25,South,173,0.0,0.0,48,0.00,,,0.01,,2013-05-01 03:02:00,
2013-04-30 23:11:00,46.0,27.0,30.25,South,173,0.0,0.0,48,0.00,,,0.01,,2013-05-01 03:11:00,
2013-04-30 23:21:00,45.0,27.0,30.25,South,173,0.0,0.0,49,0.00,,,0.01,,2013-05-01 03:21:00,
2013-04-30 23:33:00,44.0,29.0,30.25,South,173,0.0,0.0,55,0.00,,,0.01,,2013-05-01 03:33:00,
2013-04-30 23:43:00,44.0,29.0,30.25,South,173,0.0,0.0,55,0.00,,,0.01,,2013-05-01 03:43:00,
2013-04-30 23:53:00,43.0,29.0,30.25,South,173,0.0,0.0,57,0.00,,,0.01,,2013-05-01 03:53:00,